Regional Weather Roundup
Issued by NWS

Home | Current Version | Previous Version | Graphics & Text | Print | Product List | Glossary On
Versions: 1 2 3 4 5 6 7 8 9 10 11 12 13 14 15 16 17 18 19 20 21 22 23 24 25 26 27 28 29 30 31 32 33 34 35 36 37 38 39 40 41 42 43 44 45 46 47 48 49 50
000
ASUS43 KMKX 220000
RWRWI

WISCONSIN REGIONAL WEATHER ROUNDUP
NATIONAL WEATHER SERVICE MILWAUKEE/SULLIVAN WI
600 PM CST TUE NOV 21 2017

NOTE: "FAIR" INDICATES FEW OR NO CLOUDS BELOW 12,000 FEET WITH NO
SIGNIFICANT WEATHER AND/OR OBSTRUCTIONS TO VISIBILITY.

WIZ001-002-006>008-014>016-023>028-220100-
NORTHWEST WISCONSIN

CITY           SKY/WX    TMP DP  RH WIND       PRES   REMARKS
SUPERIOR ARPT  CLOUDY    20   9  61 NW14      30.24R WCI   7
6HR MIN TEMP:  20; 6HR MAX TEMP:  28;

ASHLAND        CLOUDY    22  11  62 NW13G23   30.18R WCI  10
6HR MIN TEMP:  22; 6HR MAX TEMP:  27;

HAYWARD        PTCLDY    23   8  52 NW8       30.16R WCI  14
6HR MIN TEMP:  23; 6HR MAX TEMP:  27;

SIREN          PTCLDY    24   9  53 NW13G20   30.20R WCI  12
CUMBERLAND     CLEAR     23   9  54 W8        30.16R WCI  14
RICE LAKE      CLEAR     24  10  53 W8        30.18R WCI  16
CHETEK         CLEAR     24  10  56 NW6       30.16R WCI  17
LADYSMITH      CLEAR     22  10  60 NW8       30.15R WCI  13
6HR MIN TEMP:  22; 6HR MAX TEMP:  28;

EAU CLAIRE     NOT AVBL
MENOMONIE      CLEAR     26  10  51 W12G17    30.18R WCI  16
NEW RICHMOND   CLEAR     23   9  55 NW9       30.20R WCI  13
OSCEOLA        CLEAR     25  10  51 W8        30.24R WCI  17
$$

WIZ003>005-009-010-017-018-220100-
NORTH CENTRAL WISCONSIN

CITY           SKY/WX    TMP DP  RH WIND       PRES   REMARKS
MANITOWISH WTR CLOUDY    19  11  69 NW10      30.06R WCI   8
ARBOR VITAE    CLEAR     22  13  70 NW9       30.06R WCI  11
WOODRUFF       CLEAR     22  13  70 NW9       30.06R WCI  11
RHINELANDER    CLOUDY    21  11  65 NW8       30.07R WCI  11
6HR MIN TEMP:  20; 6HR MAX TEMP:  25; 6HR PCP: TRACE;

EAGLE RIVER    FLURRIES  19  12  73 NW12G17   30.05R WCI   7
6HR MIN TEMP:  19; 6HR MAX TEMP:  24;

LAND O LAKES   FLURRIES  20  14  76 NW8G18    30.05R WCI  10
PHILLIPS       CLEAR     19   9  66 NW6       30.10R WCI  11
6HR MIN TEMP:  19; 6HR MAX TEMP:  23;

TOMAHAWK       PTCLDY    18   9  68 NW3       30.08R
MEDFORD        CLEAR     21  10  61 NW8       30.08R WCI  11
MERRILL        CLEAR     21  10  63 NW3       30.10R
6HR MIN TEMP:  20; 6HR MAX TEMP:  26;

$$

WIZ029-030-035-036-043>047-220100-
CENTRAL WISCONSIN

CITY           SKY/WX    TMP DP  RH WIND       PRES   REMARKS
WAUSAU         CLEAR     22  11  62 N8        30.09R WCI  12
6HR MIN TEMP:  22; 6HR MAX TEMP:  27;

MOSINEE        CLEAR     21  12  68 NW10      30.11R WCI  10
MARSHFIELD     CLEAR     22  11  62 NW10      30.10R WCI  11
6HR MIN TEMP:  22; 6HR MAX TEMP:  28;

STEVENS POINT  CLEAR     23  10  57 NW9G18    30.11R WCI  13
WAUPACA        CLOUDY    30  14  51 W16G24    30.10R WCI  18
WAUTOMA        CLEAR     26  13  57 NW13G20   30.12  WCI  15
6HR MIN TEMP:  26; 6HR MAX TEMP:  30;

WISC RAPIDS    CLEAR     24  12  60 NW7       30.13R WCI  16
6HR MIN TEMP:  23; 6HR MAX TEMP:  30;

CAMP DOUGLAS   NOT AVBL
$$

WIZ011>013-019>022-031-037>040-048>050-220100-
NORTHEAST WISCONSIN

CITY           SKY/WX    TMP DP  RH WIND       PRES   REMARKS
ANTIGO         MOCLDY    20  10  64 NW16G25   30.07R WCI   6
SHAWANO        CLOUDY    27  13  54 NW10G20   30.10R WCI  17
6HR MIN TEMP:  27; 6HR MAX TEMP:  33;

OCONTO         CLOUDY    27  12  53 NW12      30.06R WCI  17
STURGEON BAY   CLOUDY    27  16  63 N17       30.06R WCI  14
6HR MIN TEMP:  27; 6HR MAX TEMP:  33;

GREEN BAY      MOCLDY    28  16  60 NW16G23   30.09R WCI  16
6HR MIN TEMP:  28; 6HR MAX TEMP:  33;

MANITOWOC      CLOUDY    30  17  58 NW17      30.07R WCI  18
6HR MIN TEMP:  30; 6HR MAX TEMP:  35;

APPLETON       MOCLDY   N/A N/A N/A NW14G22   30.07R
CLINTONVILLE   CLOUDY    27  10  50 NW20G26   30.09R WCI  13
OSHKOSH        CLOUDY    29  15  56 NW15G24   30.09R WCI  18
6HR MIN TEMP:  28; 6HR MAX TEMP:  32;

$$

WIZ032>034-041-042-053>061-220100-
SOUTHWEST WISCONSIN

CITY           SKY/WX    TMP DP  RH WIND       PRES   REMARKS
LA CROSSE      CLEAR     27  14  58 N10       30.19R WCI  17
6HR MIN TEMP:  27; 6HR MAX TEMP:  33;

SPARTA         CLEAR     26  14  60 NW12      30.17R WCI  16
VIROQUA        CLEAR     25  16  69 NW8       30.14R WCI  16
6HR MIN TEMP:  25; 6HR MAX TEMP:  30;

BOSCOBEL       CLEAR     29  14  53 NW8       30.18R WCI  21
6HR MIN TEMP:  28; 6HR MAX TEMP:  36;

PRAIRIE DU CHI CLEAR     29  12  49 NW13G21   30.18R WCI  19
PLATTEVILLE    CLEAR     28  17  62 NW13G18   30.14R WCI  18
$$

WIZ056-057-062-063-064-067-068-220100-
SOUTH CENTRAL WISCONSIN

CITY           SKY/WX    TMP DP  RH WIND       PRES   REMARKS
REEDSBURG      CLEAR     26  13  56 NW12G17   30.13R WCI  16
BARABOO/DELLS  CLEAR     27  13  55 NW10      30.12R WCI  17
LONE ROCK      NOT AVBL
MINERAL POINT  CLEAR     28  18  64 NW6       30.12R WCI  22
MADISON        CLEAR     27  13  55 NW10      30.12R WCI  17
6HR MIN TEMP:  27; 6HR MAX TEMP:  34;

MIDDLETON      CLEAR     29  16  58 NW9       30.12R WCI  20
WATERTOWN      CLEAR     27  15  59 NW14G20   30.10R WCI  16
MONROE         CLEAR     28  14  54 NW10G21   30.11R WCI  19
JANESVILLE     CLEAR     30  16  55 NW12G17   30.12R WCI  21
$$

WIZ051-052-058>065-066-070>072-220100-
SOUTHEAST WISCONSIN

CITY           SKY/WX    TMP DP  RH WIND       PRES   REMARKS
MILWAUKEE      PTCLDY    31  14  49 NW12G23   30.10R WCI  22
6HR MIN TEMP:  31; 6HR MAX TEMP:  40;

WAUKESHA       CLEAR     27  12  54 NW12G18   30.10R WCI  16
MILWAUKEE/TIMM CLEAR     28  10  47 NW13G20   30.09R WCI  18
RACINE         MOCLDY    30  14  51 NW9       30.11R WCI  22
6HR MIN TEMP:  30; 6HR MAX TEMP:  40;

BURLINGTON     CLEAR     30  19  64 NW12G18   30.09R WCI  21
KENOSHA        PTCLDY    30  15  53 NW14G21   30.10R WCI  19
6HR MIN TEMP:  30; 6HR MAX TEMP:  41;

FOND DU LAC    CLOUDY    28  14  55 NW10      30.10R WCI  19
6HR MIN TEMP:  28; 6HR MAX TEMP:  33;

SHEBOYGAN      CLOUDY    30  16  56 NW12      30.07R WCI  20
6HR MIN TEMP:  29; 6HR MAX TEMP:  35; 6HR PCP: TRACE;

WEST BEND      CLEAR     28  14  54 NW8       30.07R WCI  20
JUNEAU         CLEAR     27  15  61 W5        30.10R WCI  21
$$

LSZ147-162-220100-
LAKE SUPERIOR

STATION/POSITION TIME  TEMP    WIND        PRES    WAVE
                       AIR SEA DIR/SP/G            HT/PER
                 (UTC) (F)     (DEG/KT/KT) (MB)    (FT/S)
DEVILS ISLAND    2300   23     300/ 26/ 32 1021.3R
SAXON HARBOR     2330   25     300/ 12/ 19 1020.7R
$$

LMZ867-665-643>646-220100-
LAKE MICHIGAN

STATION/POSITION TIME  TEMP    WIND        PRES    WAVE
                       AIR SEA DIR/SP/G            HT/PER
                 (UTC) (F)     (DEG/KT/KT) (MB)    (FT/S)
N MID LAKE BUOY  2250   30 47  300/ 23/ 31 1015.5R   5/ 5
NORTHPORT PIER   2345   29     330/ 23     1016.9R
KEWAUNEE LAKESHO 2330   30     320/  9/ 19 1016.2R
SHEBOYGAN LAKESH 2300   31     310/ 14/ 17 1017.6R
PORT WASHINGTON  2340   30     310/  5/  9 1019.6R
MILWAUKEE LAKESH 2330   31     310/ 10/ 13   N/A
S MID LAKE BUOY  2250   36 47  340/ 23/ 29 1016.1R   6/ 7
KENOSHA   LAKESH 2300   32     330/ 20/ 24 1017.6
$$

TC  - TEMPERATURE IN CELSIUS
VSB - VISIBILITY IN STATUTE MILES
WCI - WIND CHILL INDEX
HX  - HEAT INDEX





USA.gov is the U.S. government's official web portal to all federal, state and local government web resources and services.